Tracking 19909 objects as of 23-Oct-2019
HD Live streaming from Space Station
objects crossing your sky now

ARIANE 42L R/B

Track ARIANE 42L R/B now!
10-day predictions


NORAD ID: 25586
Int'l Code: 1998-075B
Perigee: 196.1 km
Apogee: 16,458.4 km
Inclination: 7.5 °
Period: 295.6 minutes
Semi major axis: 14698 km
RCS: 21.3079 m2 (large)
Launch date: December 22, 1998
Source: France (FR)
Launch site: FRENCH GUIANA (FRGUI)

Note: This is a ROCKET BODY
aabbcc
Your satellite tracking list
Your tracking list is empty




NASA's NSSDC Master Catalog

Two Line Element Set (TLE):
1 25586U 98075B   19294.87021936  .00057930 -49501-6  10129-2 0  9991
2 25586   7.4715 177.1438 5532043 230.1051  66.5504  4.87196460269454
Source of the keplerian elements: AFSPC